Time,TemperatureF,DewpointF,PressureIn,WindDirection,WindDirectionDegrees,WindSpeedMPH,WindSpeedGustMPH,Humidity,HourlyPrecipIn,Conditions,Clouds,dailyrainin,SoftwareType,DateUTC
2013-08-14 00:00:00,62.6,43.7,29.90,NW,313,0.0,0.0,50,0.00,,,0.00,Wunderground v.1.15,2013-08-14 07:00:00,
2013-08-14 00:05:00,62.3,43.4,29.90,NW,313,1.0,2.0,50,0.00,,,0.00,Wunderground v.1.15,2013-08-14 07:05:00,
2013-08-14 00:10:00,62.0,43.7,29.90,NW,313,1.0,1.0,51,0.00,,,0.00,Wunderground v.1.15,2013-08-14 07:10:00,
2013-08-14 00:20:00,61.6,43.3,29.90,NW,313,0.0,0.0,51,0.00,,,0.00,Wunderground v.1.15,2013-08-14 07:20:00,
2013-08-14 00:25:00,61.5,43.2,29.90,NW,313,0.0,0.0,51,0.00,,,0.00,Wunderground v.1.15,2013-08-14 07:25:00,
2013-08-14 00:30:00,61.3,43.0,29.90,NW,313,0.0,0.0,51,0.00,,,0.00,Wunderground v.1.15,2013-08-14 07:30:00,
2013-08-14 00:35:00,61.2,42.9,29.90,NW,313,0.0,0.0,51,0.00,,,0.00,Wunderground v.1.15,2013-08-14 07:35:00,
2013-08-14 00:45:00,60.5,42.8,29.91,NW,313,0.0,0.0,52,0.00,,,0.00,Wunderground v.1.15,2013-08-14 07:45:00,
2013-08-14 00:50:00,60.2,43.0,29.91,NW,313,0.0,0.0,53,0.00,,,0.00,Wunderground v.1.15,2013-08-14 07:50:00,
2013-08-14 00:55:00,59.9,42.7,29.91,NW,313,0.0,0.0,53,0.00,,,0.00,Wunderground v.1.15,2013-08-14 07:55:00,
2013-08-14 01:00:00,59.8,42.6,29.90,NW,313,0.0,0.0,53,0.00,,,0.00,Wunderground v.1.15,2013-08-14 08:00:00,
2013-08-14 01:10:00,59.3,42.6,29.90,NW,313,0.0,0.0,54,0.00,,,0.00,Wunderground v.1.15,2013-08-14 08:10:00,
2013-08-14 01:15:00,59.0,42.4,29.90,NW,313,0.0,0.0,54,0.00,,,0.00,Wunderground v.1.15,2013-08-14 08:15:00,
2013-08-14 01:20:00,58.9,42.3,29.90,NW,313,0.0,0.0,54,0.00,,,0.00,Wunderground v.1.15,2013-08-14 08:20:00,
2013-08-14 01:25:00,58.6,42.5,29.90,NW,313,0.0,0.0,55,0.00,,,0.00,Wunderground v.1.15,2013-08-14 08:25:00,
2013-08-14 01:35:00,58.1,42.0,29.90,NW,313,0.0,0.0,55,0.00,,,0.00,Wunderground v.1.15,2013-08-14 08:35:00,
2013-08-14 01:40:00,57.8,41.7,29.90,NW,313,0.0,0.0,55,0.00,,,0.00,Wunderground v.1.15,2013-08-14 08:40:00,
2013-08-14 01:45:00,57.6,42.0,29.90,NW,313,0.0,0.0,56,0.00,,,0.00,Wunderground v.1.15,2013-08-14 08:45:00,
2013-08-14 01:50:00,57.3,41.7,29.90,NW,313,0.0,0.0,56,0.00,,,0.00,Wunderground v.1.15,2013-08-14 08:50:00,
2013-08-14 02:00:00,57.0,41.9,29.90,NW,313,0.0,0.0,57,0.00,,,0.00,Wunderground v.1.15,2013-08-14 09:00:00,
2013-08-14 02:05:00,56.7,41.6,29.90,NW,313,0.0,2.0,57,0.00,,,0.00,Wunderground v.1.15,2013-08-14 09:05:00,
2013-08-14 02:10:00,56.5,41.9,29.90,NW,313,0.0,0.0,58,0.00,,,0.00,Wunderground v.1.15,2013-08-14 09:10:00,
2013-08-14 02:15:00,56.3,41.7,29.91,NW,313,0.0,1.0,58,0.00,,,0.00,Wunderground v.1.15,2013-08-14 09:15:00,
2013-08-14 02:25:00,56.0,41.9,29.91,NW,313,0.0,1.0,59,0.00,,,0.00,Wunderground v.1.15,2013-08-14 09:25:00,
2013-08-14 02:30:00,55.7,41.6,29.90,NW,313,0.0,0.0,59,0.00,,,0.00,Wunderground v.1.15,2013-08-14 09:30:00,
2013-08-14 02:35:00,55.6,41.5,29.90,NW,313,0.0,0.0,59,0.00,,,0.00,Wunderground v.1.15,2013-08-14 09:35:00,
2013-08-14 02:40:00,55.6,41.5,29.90,NW,313,0.0,0.0,59,0.00,,,0.00,Wunderground v.1.15,2013-08-14 09:40:00,
2013-08-14 02:45:00,55.4,41.7,29.90,NW,313,0.0,0.0,60,0.00,,,0.00,Wunderground v.1.15,2013-08-14 09:45:00,
2013-08-14 02:55:00,55.1,41.0,29.90,NW,313,0.0,0.0,59,0.00,,,0.00,Wunderground v.1.15,2013-08-14 09:55:00,
2013-08-14 03:00:00,55.1,41.5,29.90,NW,313,0.0,0.0,60,0.00,,,0.00,Wunderground v.1.15,2013-08-14 10:00:00,
2013-08-14 03:10:00,54.7,41.1,29.90,NW,313,0.0,0.0,60,0.00,,,0.00,Wunderground v.1.15,2013-08-14 10:10:00,
2013-08-14 03:15:00,54.2,41.0,29.91,NW,313,0.0,0.0,61,0.00,,,0.00,Wunderground v.1.15,2013-08-14 10:15:00,
2013-08-14 03:20:00,53.9,40.8,29.91,NW,313,0.0,0.0,61,0.00,,,0.00,Wunderground v.1.15,2013-08-14 10:20:00,
2013-08-14 03:25:00,53.8,41.1,29.91,NW,313,0.0,0.0,62,0.00,,,0.00,Wunderground v.1.15,2013-08-14 10:25:00,
2013-08-14 03:30:00,53.6,40.9,29.91,NW,313,0.0,0.0,62,0.00,,,0.00,Wunderground v.1.15,2013-08-14 10:30:00,
2013-08-14 03:40:00,53.5,41.2,29.91,NW,313,0.0,0.0,63,0.00,,,0.00,Wunderground v.1.15,2013-08-14 10:40:00,
2013-08-14 03:50:00,53.5,40.8,29.91,NW,313,0.0,0.0,62,0.00,,,0.00,Wunderground v.1.15,2013-08-14 10:50:00,
2013-08-14 03:55:00,53.5,40.8,29.91,NW,313,0.0,0.0,62,0.00,,,0.00,Wunderground v.1.15,2013-08-14 10:55:00,
2013-08-14 04:00:00,53.3,40.6,29.91,NW,313,0.0,0.0,62,0.00,,,0.00,Wunderground v.1.15,2013-08-14 11:00:00,
2013-08-14 04:05:00,53.1,40.8,29.91,NW,313,0.0,0.0,63,0.00,,,0.00,Wunderground v.1.15,2013-08-14 11:05:00,
2013-08-14 04:10:00,52.9,40.6,29.91,NW,313,0.0,0.0,63,0.00,,,0.00,Wunderground v.1.15,2013-08-14 11:10:00,
2013-08-14 04:15:00,52.8,40.5,29.91,NW,313,0.0,0.0,63,0.00,,,0.00,Wunderground v.1.15,2013-08-14 11:15:00,
2013-08-14 04:20:00,52.8,41.0,29.91,NW,313,0.0,0.0,64,0.00,,,0.00,Wunderground v.1.15,2013-08-14 11:20:00,
2013-08-14 04:30:00,52.6,40.8,29.91,NW,313,0.0,0.0,64,0.00,,,0.00,Wunderground v.1.15,2013-08-14 11:30:00,
2013-08-14 04:35:00,52.5,40.7,29.91,NW,313,0.0,0.0,64,0.00,,,0.00,Wunderground v.1.15,2013-08-14 11:35:00,
2013-08-14 04:40:00,52.3,40.5,29.91,NW,313,0.0,0.0,64,0.00,,,0.00,Wunderground v.1.15,2013-08-14 11:40:00,
2013-08-14 04:50:00,52.2,40.8,29.92,NW,313,1.0,1.0,65,0.00,,,0.00,Wunderground v.1.15,2013-08-14 11:50:00,
2013-08-14 04:55:00,52.0,40.6,29.92,NW,313,1.0,1.0,65,0.00,,,0.00,Wunderground v.1.15,2013-08-14 11:55:00,
2013-08-14 05:00:00,52.0,40.6,29.92,NW,313,0.0,0.0,65,0.00,,,0.00,Wunderground v.1.15,2013-08-14 12:00:00,
2013-08-14 05:05:00,51.9,40.1,29.92,NW,313,0.0,0.0,64,0.00,,,0.00,Wunderground v.1.15,2013-08-14 12:05:00,
2013-08-14 05:10:00,51.9,40.5,29.92,NW,313,0.0,0.0,65,0.00,,,0.00,Wunderground v.1.15,2013-08-14 12:10:00,
2013-08-14 05:20:00,51.7,40.3,29.92,NW,313,0.0,0.0,65,0.00,,,0.00,Wunderground v.1.15,2013-08-14 12:20:00,
2013-08-14 05:25:00,51.4,40.0,29.92,NW,313,0.0,0.0,65,0.00,,,0.00,Wunderground v.1.15,2013-08-14 12:25:00,
2013-08-14 05:30:00,51.1,40.1,29.92,NW,313,0.0,2.0,66,0.00,,,0.00,Wunderground v.1.15,2013-08-14 12:30:00,
2013-08-14 05:40:00,50.8,39.8,29.92,NW,313,0.0,0.0,66,0.00,,,0.00,Wunderground v.1.15,2013-08-14 12:40:00,
2013-08-14 05:45:00,50.8,40.2,29.92,NW,313,0.0,0.0,67,0.00,,,0.00,Wunderground v.1.15,2013-08-14 12:45:00,
2013-08-14 05:50:00,50.8,40.2,29.92,NW,313,0.0,0.0,67,0.00,,,0.00,Wunderground v.1.15,2013-08-14 12:50:00,
2013-08-14 05:55:00,50.7,40.1,29.92,NW,313,0.0,0.0,67,0.00,,,0.00,Wunderground v.1.15,2013-08-14 12:55:00,
2013-08-14 06:00:00,50.7,40.1,29.92,NW,313,0.0,0.0,67,0.00,,,0.00,Wunderground v.1.15,2013-08-14 13:00:00,
2013-08-14 06:10:00,50.4,39.9,29.92,NW,313,0.0,0.0,67,0.00,,,0.00,Wunderground v.1.15,2013-08-14 13:10:00,
2013-08-14 06:15:00,50.2,39.7,29.93,NW,313,0.0,0.0,67,0.00,,,0.00,Wunderground v.1.15,2013-08-14 13:15:00,
2013-08-14 06:20:00,50.1,39.9,29.93,NW,313,0.0,0.0,68,0.00,,,0.00,Wunderground v.1.15,2013-08-14 13:20:00,
2013-08-14 06:25:00,50.1,39.9,29.93,NW,313,0.0,0.0,68,0.00,,,0.00,Wunderground v.1.15,2013-08-14 13:25:00,
2013-08-14 06:35:00,49.9,39.8,29.93,NW,313,0.0,0.0,68,0.00,,,0.00,Wunderground v.1.15,2013-08-14 13:35:00,
2013-08-14 06:40:00,49.9,39.8,29.93,NW,313,0.0,0.0,68,0.00,,,0.00,Wunderground v.1.15,2013-08-14 13:40:00,
2013-08-14 06:45:00,49.9,39.8,29.93,NW,313,0.0,0.0,68,0.00,,,0.00,Wunderground v.1.15,2013-08-14 13:45:00,
2013-08-14 06:50:00,50.1,40.3,29.93,NW,313,0.0,0.0,69,0.00,,,0.00,Wunderground v.1.15,2013-08-14 13:50:00,
2013-08-14 06:55:00,50.2,40.0,29.93,NW,313,0.0,0.0,68,0.00,,,0.00,Wunderground v.1.15,2013-08-14 13:55:00,
2013-08-14 07:00:00,50.4,39.9,29.93,NW,313,0.0,0.0,67,0.00,,,0.00,Wunderground v.1.15,2013-08-14 14:00:00,
2013-08-14 07:10:00,51.6,40.6,29.93,NW,313,0.0,0.0,66,0.00,,,0.00,Wunderground v.1.15,2013-08-14 14:10:00,
2013-08-14 07:15:00,52.0,40.6,29.94,NW,313,0.0,0.0,65,0.00,,,0.00,Wunderground v.1.15,2013-08-14 14:15:00,
2013-08-14 07:25:00,52.6,41.2,29.94,NW,313,0.0,0.0,65,0.00,,,0.00,Wunderground v.1.15,2013-08-14 14:25:00,
2013-08-14 07:30:00,53.1,41.6,29.94,NW,313,0.0,0.0,65,0.00,,,0.00,Wunderground v.1.15,2013-08-14 14:30:00,
2013-08-14 07:35:00,53.8,41.9,29.94,NW,313,0.0,0.0,64,0.00,,,0.00,Wunderground v.1.15,2013-08-14 14:35:00,
2013-08-14 07:40:00,54.7,41.9,29.94,NW,313,0.0,0.0,62,0.00,,,0.00,Wunderground v.1.15,2013-08-14 14:40:00,
2013-08-14 07:50:00,56.6,42.9,29.94,NW,313,0.0,0.0,60,0.00,,,0.00,Wunderground v.1.15,2013-08-14 14:50:00,
2013-08-14 07:55:00,57.3,42.6,29.94,NW,313,0.0,0.0,58,0.00,,,0.00,Wunderground v.1.15,2013-08-14 14:55:00,
2013-08-14 08:00:00,58.1,43.4,29.94,NW,313,0.0,0.0,58,0.00,,,0.00,Wunderground v.1.15,2013-08-14 15:00:00,
2013-08-14 08:10:00,59.8,43.6,29.94,NW,313,0.0,0.0,55,0.00,,,0.00,Wunderground v.1.15,2013-08-14 15:10:00,
2013-08-14 08:15:00,61.2,43.9,29.94,NW,313,0.0,0.0,53,0.00,,,0.00,Wunderground v.1.15,2013-08-14 15:15:00,
2013-08-14 08:20:00,62.4,44.0,29.94,NW,313,0.0,0.0,51,0.00,,,0.00,Wunderground v.1.15,2013-08-14 15:20:00,
2013-08-14 08:25:00,63.9,43.8,29.94,NW,313,0.0,0.0,48,0.00,,,0.00,Wunderground v.1.15,2013-08-14 15:25:00,
2013-08-14 08:30:00,65.0,44.3,29.94,NW,313,0.0,0.0,47,0.00,,,0.00,Wunderground v.1.15,2013-08-14 15:30:00,
2013-08-14 08:40:00,66.8,44.8,29.94,NW,313,0.0,0.0,45,0.00,,,0.00,Wunderground v.1.15,2013-08-14 15:40:00,
2013-08-14 08:45:00,67.6,44.3,29.93,NW,313,0.0,0.0,43,0.00,,,0.00,Wunderground v.1.15,2013-08-14 15:45:00,
2013-08-14 08:50:00,68.8,44.8,29.93,NW,313,0.0,0.0,42,0.00,,,0.00,Wunderground v.1.15,2013-08-14 15:50:00,
2013-08-14 08:55:00,69.9,43.8,29.93,NW,313,0.0,0.0,39,0.00,,,0.00,Wunderground v.1.15,2013-08-14 15:55:00,
2013-08-14 09:00:00,70.9,42.6,29.93,NW,313,0.0,0.0,36,0.00,,,0.00,Wunderground v.1.15,2013-08-14 16:00:00,
2013-08-14 09:10:00,72.8,43.5,29.93,NW,313,0.0,0.0,35,0.00,,,0.00,Wunderground v.1.15,2013-08-14 16:10:00,
2013-08-14 09:15:00,73.5,43.4,29.93,NW,313,0.0,0.0,34,0.00,,,0.00,Wunderground v.1.15,2013-08-14 16:15:00,
2013-08-14 09:20:00,74.0,43.8,29.93,NW,313,0.0,0.0,34,0.00,,,0.00,Wunderground v.1.15,2013-08-14 16:20:00,
2013-08-14 09:30:00,76.0,44.8,29.92,NW,313,0.0,0.0,33,0.00,,,0.00,Wunderground v.1.15,2013-08-14 16:30:00,
2013-08-14 09:40:00,77.4,44.4,29.92,NW,313,0.0,0.0,31,0.00,,,0.00,Wunderground v.1.15,2013-08-14 16:40:00,
2013-08-14 09:45:00,78.5,43.6,29.92,NW,313,0.0,0.0,29,0.00,,,0.00,Wunderground v.1.15,2013-08-14 16:45:00,
2013-08-14 09:50:00,79.2,44.2,29.92,East,97,0.0,1.0,29,0.00,,,0.00,Wunderground v.1.15,2013-08-14 16:50:00,
2013-08-14 10:00:00,80.5,44.4,29.92,ENE,64,0.0,0.0,28,0.00,,,0.00,Wunderground v.1.15,2013-08-14 17:00:00,
2013-08-14 10:05:00,81.2,45.0,29.92,ENE,64,0.0,0.0,28,0.00,,,0.00,Wunderground v.1.15,2013-08-14 17:05:00,
2013-08-14 10:10:00,81.8,45.5,29.92,ENE,63,0.0,0.0,28,0.00,,,0.00,Wunderground v.1.15,2013-08-14 17:10:00,
2013-08-14 10:15:00,82.6,45.2,29.92,ENE,63,0.0,1.0,27,0.00,,,0.00,Wunderground v.1.15,2013-08-14 17:15:00,
2013-08-14 10:20:00,83.2,44.7,29.92,ENE,63,0.0,0.0,26,0.00,,,0.00,Wunderground v.1.15,2013-08-14 17:20:00,
2013-08-14 10:30:00,84.1,45.5,29.91,West,281,0.0,0.0,26,0.00,,,0.00,Wunderground v.1.15,2013-08-14 17:30:00,
2013-08-14 10:35:00,84.9,46.2,29.91,West,281,0.0,0.0,26,0.00,,,0.00,Wunderground v.1.15,2013-08-14 17:35:00,
2013-08-14 10:40:00,85.3,44.4,29.91,NE,51,0.0,0.0,24,0.00,,,0.00,Wunderground v.1.15,2013-08-14 17:40:00,
2013-08-14 10:55:00,86.1,45.1,29.91,East,79,0.0,1.0,24,0.00,,,0.00,Wunderground v.1.15,2013-08-14 17:55:00,
2013-08-14 11:05:00,87.4,43.9,29.91,ENE,75,0.0,0.0,22,0.00,,,0.00,Wunderground v.1.15,2013-08-14 18:05:00,
2013-08-14 11:10:00,88.6,44.9,29.91,ENE,75,0.0,0.0,22,0.00,,,0.00,Wunderground v.1.15,2013-08-14 18:10:00,
2013-08-14 11:20:00,88.2,44.5,29.90,East,89,1.0,3.0,22,0.00,,,0.00,Wunderground v.1.15,2013-08-14 18:20:00,
2013-08-14 11:35:00,89.5,43.1,29.90,WSW,242,2.0,2.0,20,0.00,,,0.00,Wunderground v.1.15,2013-08-14 18:35:00,
2013-08-14 11:40:00,90.3,43.8,29.90,ESE,121,1.0,5.0,20,0.00,,,0.00,Wunderground v.1.15,2013-08-14 18:40:00,
2013-08-14 11:50:00,90.1,43.6,29.90,ENE,71,3.0,3.0,20,0.00,,,0.00,Wunderground v.1.15,2013-08-14 18:50:00,
2013-08-14 12:05:00,91.6,42.1,29.90,East,96,1.0,2.0,18,0.00,,,0.00,Wunderground v.1.15,2013-08-14 19:05:00,
2013-08-14 12:15:00,91.8,42.3,29.89,ESE,117,2.0,6.0,18,0.00,,,0.00,Wunderground v.1.15,2013-08-14 19:15:00,
2013-08-14 12:20:00,91.8,42.3,29.89,South,175,3.0,3.0,18,0.00,,,0.00,Wunderground v.1.15,2013-08-14 19:20:00,
2013-08-14 12:35:00,91.4,43.3,29.89,NNW,330,4.0,5.0,19,0.00,,,0.00,Wunderground v.1.15,2013-08-14 19:35:00,
2013-08-14 12:40:00,91.4,43.3,29.89,ENE,75,5.0,5.0,19,0.00,,,0.00,Wunderground v.1.15,2013-08-14 19:40:00,
2013-08-14 12:45:00,92.3,44.1,29.88,East,98,4.0,5.0,19,0.00,,,0.00,Wunderground v.1.15,2013-08-14 19:45:00,
2013-08-14 12:55:00,93.2,44.8,29.88,ESE,120,4.0,7.0,19,0.00,,,0.00,Wunderground v.1.15,2013-08-14 19:55:00,
2013-08-14 13:00:00,92.5,42.8,29.88,SSE,165,5.0,5.0,18,0.00,,,0.00,Wunderground v.1.15,2013-08-14 20:00:00,
2013-08-14 13:05:00,92.7,43.0,29.88,ENE,63,4.0,5.0,18,0.00,,,0.00,Wunderground v.1.15,2013-08-14 20:05:00,
2013-08-14 13:15:00,92.5,44.2,29.88,NW,306,5.0,7.0,19,0.00,,,0.00,Wunderground v.1.15,2013-08-14 20:15:00,
2013-08-14 13:25:00,93.4,45.0,29.88,NNW,327,4.0,5.0,19,0.00,,,0.00,Wunderground v.1.15,2013-08-14 20:25:00,
2013-08-14 13:35:00,93.4,43.6,29.87,NNW,335,4.0,5.0,18,0.00,,,0.00,Wunderground v.1.15,2013-08-14 20:35:00,
2013-08-14 13:50:00,93.6,42.2,29.87,NNE,26,4.0,4.0,17,0.00,,,0.00,Wunderground v.1.15,2013-08-14 20:50:00,
2013-08-14 14:05:00,94.0,42.5,29.87,NW,313,5.0,5.0,17,0.00,,,0.00,Wunderground v.1.15,2013-08-14 21:05:00,
2013-08-14 14:10:00,93.8,43.9,29.87,NW,309,5.0,5.0,18,0.00,,,0.00,Wunderground v.1.15,2013-08-14 21:10:00,
2013-08-14 14:15:00,94.3,42.8,29.87,East,91,5.0,5.0,17,0.00,,,0.00,Wunderground v.1.15,2013-08-14 21:15:00,
2013-08-14 14:20:00,94.9,43.3,29.87,NE,34,2.0,2.0,17,0.00,,,0.00,Wunderground v.1.15,2013-08-14 21:20:00,
2013-08-14 14:25:00,94.7,43.1,29.87,ENE,60,2.0,3.0,17,0.00,,,0.00,Wunderground v.1.15,2013-08-14 21:25:00,
2013-08-14 14:30:00,94.9,43.3,29.86,WNW,300,3.0,7.0,17,0.00,,,0.00,Wunderground v.1.15,2013-08-14 21:30:00,
2013-08-14 14:40:00,95.4,45.2,29.86,East,90,4.0,4.0,18,0.00,,,0.00,Wunderground v.1.15,2013-08-14 21:40:00,
2013-08-14 14:45:00,95.6,42.3,29.85,SE,130,3.0,5.0,16,0.00,,,0.00,Wunderground v.1.15,2013-08-14 21:45:00,
2013-08-14 14:50:00,94.7,43.1,29.85,ENE,78,4.0,4.0,17,0.00,,,0.00,Wunderground v.1.15,2013-08-14 21:50:00,
2013-08-14 15:05:00,95.9,45.6,29.85,ENE,74,2.0,4.0,18,0.00,,,0.00,Wunderground v.1.15,2013-08-14 22:05:00,
2013-08-14 15:15:00,96.1,44.2,29.84,NW,311,3.0,9.0,17,0.00,,,0.00,Wunderground v.1.15,2013-08-14 22:15:00,
2013-08-14 15:20:00,96.6,41.4,29.84,East,93,4.0,6.0,15,0.00,,,0.00,Wunderground v.1.15,2013-08-14 22:20:00,
2013-08-14 15:25:00,96.8,43.2,29.84,NE,49,3.0,6.0,16,0.00,,,0.00,Wunderground v.1.15,2013-08-14 22:25:00,
2013-08-14 15:30:00,96.6,44.6,29.84,SE,138,3.0,4.0,17,0.00,,,0.00,Wunderground v.1.15,2013-08-14 22:30:00,
2013-08-14 15:40:00,96.8,43.2,29.84,SE,139,5.0,5.0,16,0.00,,,0.00,Wunderground v.1.15,2013-08-14 22:40:00,
2013-08-14 15:45:00,96.8,43.2,29.84,NNW,340,5.0,8.0,16,0.00,,,0.00,Wunderground v.1.15,2013-08-14 22:45:00,
2013-08-14 15:50:00,96.6,43.0,29.84,West,272,5.0,6.0,16,0.00,,,0.00,Wunderground v.1.15,2013-08-14 22:50:00,
2013-08-14 15:55:00,96.6,44.6,29.84,North,5,4.0,7.0,17,0.00,,,0.00,Wunderground v.1.15,2013-08-14 22:55:00,
2013-08-14 16:00:00,96.8,43.2,29.84,NW,311,4.0,4.0,16,0.00,,,0.00,Wunderground v.1.15,2013-08-14 23:00:00,
2013-08-14 16:10:00,95.9,42.5,29.84,WNW,285,5.0,5.0,16,0.00,,,0.00,Wunderground v.1.15,2013-08-14 23:10:00,
2013-08-14 16:20:00,96.3,42.8,29.83,NW,305,6.0,7.0,16,0.00,,,0.00,Wunderground v.1.15,2013-08-14 23:20:00,
2013-08-14 16:30:00,96.1,42.6,29.83,West,278,5.0,5.0,16,0.00,,,0.00,Wunderground v.1.15,2013-08-14 23:30:00,
2013-08-14 16:35:00,95.6,42.3,29.83,WNW,292,5.0,5.0,16,0.00,,,0.00,Wunderground v.1.15,2013-08-14 23:35:00,
2013-08-14 16:45:00,95.9,44.1,29.82,West,273,5.0,7.0,17,0.00,,,0.00,Wunderground v.1.15,2013-08-14 23:45:00,
2013-08-14 16:50:00,96.1,42.6,29.82,NW,309,5.0,5.0,16,0.00,,,0.00,Wunderground v.1.15,2013-08-14 23:50:00,
2013-08-14 16:55:00,96.1,42.6,29.82,West,277,4.0,9.0,16,0.00,,,0.00,Wunderground v.1.15,2013-08-14 23:55:00,
2013-08-14 17:00:00,95.9,44.1,29.82,WNW,293,5.0,5.0,17,0.00,,,0.00,Wunderground v.1.15,2013-08-15 00:00:00,
2013-08-14 17:10:00,95.4,43.7,29.82,SW,228,5.0,11.0,17,0.00,,,0.00,Wunderground v.1.15,2013-08-15 00:10:00,
2013-08-14 17:15:00,95.4,43.7,29.82,SE,135,5.0,11.0,17,0.00,,,0.00,Wunderground v.1.15,2013-08-15 00:15:00,
2013-08-14 17:20:00,95.4,45.2,29.82,NW,315,5.0,5.0,18,0.00,,,0.00,Wunderground v.1.15,2013-08-15 00:20:00,
2013-08-14 17:30:00,94.9,43.3,29.82,SSW,206,6.0,6.0,17,0.00,,,0.00,Wunderground v.1.15,2013-08-15 00:30:00,
2013-08-14 17:40:00,94.7,44.6,29.82,West,263,5.0,5.0,18,0.00,,,0.00,Wunderground v.1.15,2013-08-15 00:40:00,
2013-08-14 17:45:00,94.9,44.8,29.82,NNW,333,5.0,5.0,18,0.00,,,0.00,Wunderground v.1.15,2013-08-15 00:45:00,
2013-08-14 17:55:00,94.5,44.4,29.82,WNW,286,5.0,7.0,18,0.00,,,0.00,Wunderground v.1.15,2013-08-15 00:55:00,
2013-08-14 18:00:00,94.3,44.3,29.82,SSW,200,7.0,7.0,18,0.00,,,0.00,Wunderground v.1.15,2013-08-15 01:00:00,
2013-08-14 18:05:00,93.8,43.9,29.82,NW,325,8.0,8.0,18,0.00,,,0.00,Wunderground v.1.15,2013-08-15 01:05:00,
2013-08-14 18:15:00,93.8,43.9,29.81,WNW,288,6.0,7.0,18,0.00,,,0.00,Wunderground v.1.15,2013-08-15 01:15:00,
2013-08-14 18:25:00,93.6,45.1,29.81,WNW,284,5.0,5.0,19,0.00,,,0.00,Wunderground v.1.15,2013-08-15 01:25:00,
2013-08-14 18:30:00,93.6,45.1,29.81,West,273,4.0,5.0,19,0.00,,,0.00,Wunderground v.1.15,2013-08-15 01:30:00,
2013-08-14 18:40:00,93.2,44.8,29.81,West,280,4.0,4.0,19,0.00,,,0.00,Wunderground v.1.15,2013-08-15 01:40:00,
2013-08-14 18:45:00,92.9,44.6,29.81,WSW,237,4.0,4.0,19,0.00,,,0.00,Wunderground v.1.15,2013-08-15 01:45:00,
2013-08-14 18:50:00,92.9,44.6,29.81,WNW,300,4.0,4.0,19,0.00,,,0.00,Wunderground v.1.15,2013-08-15 01:50:00,
2013-08-14 19:00:00,92.1,45.3,29.81,NW,310,4.0,4.0,20,0.00,,,0.00,Wunderground v.1.15,2013-08-15 02:00:00,
2013-08-14 19:05:00,91.8,45.0,29.81,NW,325,3.0,4.0,20,0.00,,,0.00,Wunderground v.1.15,2013-08-15 02:05:00,
2013-08-14 19:15:00,91.4,44.7,29.82,WNW,294,3.0,7.0,20,0.00,,,0.00,Wunderground v.1.15,2013-08-15 02:15:00,
2013-08-14 19:20:00,91.0,45.6,29.82,WNW,289,2.0,4.0,21,0.00,,,0.00,Wunderground v.1.15,2013-08-15 02:20:00,
2013-08-14 19:30:00,89.9,44.7,29.82,South,176,0.0,0.0,21,0.00,,,0.00,Wunderground v.1.15,2013-08-15 02:30:00,
2013-08-14 19:35:00,89.5,45.6,29.82,WSW,250,0.0,1.0,22,0.00,,,0.00,Wunderground v.1.15,2013-08-15 02:35:00,
2013-08-14 19:45:00,88.4,45.9,29.82,WSW,250,0.0,0.0,23,0.00,,,0.00,Wunderground v.1.15,2013-08-15 02:45:00,
2013-08-14 19:50:00,87.6,45.2,29.82,WSW,250,0.0,0.0,23,0.00,,,0.00,Wunderground v.1.15,2013-08-15 02:50:00,
2013-08-14 20:00:00,85.7,45.8,29.83,WSW,250,0.0,0.0,25,0.00,,,0.00,Wunderground v.1.15,2013-08-15 03:00:00,
2013-08-14 20:05:00,84.7,46.0,29.83,WSW,250,0.0,0.0,26,0.00,,,0.00,Wunderground v.1.15,2013-08-15 03:05:00,
2013-08-14 20:10:00,83.8,46.2,29.83,WSW,250,0.0,0.0,27,0.00,,,0.00,Wunderground v.1.15,2013-08-15 03:10:00,
2013-08-14 20:20:00,82.0,45.7,29.83,WSW,250,0.0,0.0,28,0.00,,,0.00,Wunderground v.1.15,2013-08-15 03:20:00,
2013-08-14 20:25:00,81.2,45.9,29.83,WSW,250,0.0,0.0,29,0.00,,,0.00,Wunderground v.1.15,2013-08-15 03:25:00,
2013-08-14 20:30:00,80.5,46.2,29.84,WSW,250,0.0,0.0,30,0.00,,,0.00,Wunderground v.1.15,2013-08-15 03:30:00,
2013-08-14 20:35:00,79.8,45.6,29.84,WSW,250,0.0,0.0,30,0.00,,,0.00,Wunderground v.1.15,2013-08-15 03:35:00,
2013-08-14 20:45:00,78.1,45.8,29.84,WSW,250,0.0,0.0,32,0.00,,,0.00,Wunderground v.1.15,2013-08-15 03:45:00,
2013-08-14 20:50:00,77.4,46.0,29.84,WSW,250,0.0,0.0,33,0.00,,,0.00,Wunderground v.1.15,2013-08-15 03:50:00,
2013-08-14 20:55:00,76.5,46.0,29.84,WSW,250,0.0,0.0,34,0.00,,,0.00,Wunderground v.1.15,2013-08-15 03:55:00,
2013-08-14 21:05:00,75.3,45.7,29.84,WSW,250,0.0,0.0,35,0.00,,,0.00,Wunderground v.1.15,2013-08-15 04:05:00,
2013-08-14 21:10:00,74.9,45.4,29.84,WSW,250,0.0,0.0,35,0.00,,,0.00,Wunderground v.1.15,2013-08-15 04:10:00,
2013-08-14 21:15:00,74.7,46.0,29.85,WSW,250,0.0,0.0,36,0.00,,,0.00,Wunderground v.1.15,2013-08-15 04:15:00,
2013-08-14 21:20:00,74.4,45.7,29.85,WSW,250,0.0,0.0,36,0.00,,,0.00,Wunderground v.1.15,2013-08-15 04:20:00,
2013-08-14 21:25:00,73.9,46.0,29.85,WSW,250,0.0,0.0,37,0.00,,,0.00,Wunderground v.1.15,2013-08-15 04:25:00,
2013-08-14 21:30:00,73.3,46.2,29.85,WSW,250,0.0,0.0,38,0.00,,,0.00,Wunderground v.1.15,2013-08-15 04:30:00,
2013-08-14 21:35:00,72.7,46.3,29.85,WSW,250,0.0,0.0,39,0.00,,,0.00,Wunderground v.1.15,2013-08-15 04:35:00,
2013-08-14 21:40:00,72.1,45.8,29.85,WSW,250,0.0,0.0,39,0.00,,,0.00,Wunderground v.1.15,2013-08-15 04:40:00,
2013-08-14 21:50:00,71.5,45.9,29.86,WSW,250,0.0,1.0,40,0.00,,,0.00,Wunderground v.1.15,2013-08-15 04:50:00,
2013-08-14 21:55:00,70.9,46.0,29.86,WSW,251,0.0,1.0,41,0.00,,,0.00,Wunderground v.1.15,2013-08-15 04:55:00,
2013-08-14 22:00:00,70.6,46.4,29.87,WSW,251,0.0,0.0,42,0.00,,,0.00,Wunderground v.1.15,2013-08-15 05:00:00,
2013-08-14 22:05:00,70.3,46.7,29.87,WSW,251,0.0,0.0,43,0.00,,,0.00,Wunderground v.1.15,2013-08-15 05:05:00,
2013-08-14 22:10:00,69.9,46.4,29.87,WSW,251,0.0,0.0,43,0.00,,,0.00,Wunderground v.1.15,2013-08-15 05:10:00,
2013-08-14 22:20:00,69.3,45.8,29.87,WSW,251,0.0,0.0,43,0.00,,,0.00,Wunderground v.1.15,2013-08-15 05:20:00,
2013-08-14 22:25:00,68.8,46.0,29.87,WSW,251,0.0,0.0,44,0.00,,,0.00,Wunderground v.1.15,2013-08-15 05:25:00,
2013-08-14 22:30:00,68.4,45.6,29.87,WSW,251,0.0,0.0,44,0.00,,,0.00,Wunderground v.1.15,2013-08-15 05:30:00,
2013-08-14 22:40:00,67.8,45.7,29.87,WSW,251,0.0,0.0,45,0.00,,,0.00,Wunderground v.1.15,2013-08-15 05:40:00,
2013-08-14 22:45:00,67.6,46.1,29.87,WSW,251,0.0,0.0,46,0.00,,,0.00,Wunderground v.1.15,2013-08-15 05:45:00,
2013-08-14 22:50:00,67.3,45.8,29.87,WSW,251,0.0,1.0,46,0.00,,,0.00,Wunderground v.1.15,2013-08-15 05:50:00,
2013-08-14 23:00:00,66.6,45.7,29.87,WSW,251,0.0,0.0,47,0.00,,,0.00,Wunderground v.1.15,2013-08-15 06:00:00,
2013-08-14 23:05:00,66.3,46.0,29.87,WSW,251,0.0,0.0,48,0.00,,,0.00,Wunderground v.1.15,2013-08-15 06:05:00,
2013-08-14 23:10:00,66.0,46.3,29.87,WSW,251,0.0,0.0,49,0.00,,,0.00,Wunderground v.1.15,2013-08-15 06:10:00,
2013-08-14 23:20:00,65.6,45.9,29.87,West,264,1.0,1.0,49,0.00,,,0.00,Wunderground v.1.15,2013-08-15 06:20:00,
2013-08-14 23:25:00,65.6,45.9,29.87,West,271,1.0,1.0,49,0.00,,,0.00,Wunderground v.1.15,2013-08-15 06:25:00,
2013-08-14 23:35:00,65.2,45.5,29.87,West,271,1.0,1.0,49,0.00,,,0.00,Wunderground v.1.15,2013-08-15 06:35:00,
2013-08-14 23:40:00,64.8,45.2,29.87,West,271,0.0,0.0,49,0.00,,,0.00,Wunderground v.1.15,2013-08-15 06:40:00,
2013-08-14 23:50:00,64.3,45.3,29.88,West,271,0.0,0.0,50,0.00,,,0.00,Wunderground v.1.15,2013-08-15 06:50:00,